Location: Nairn
(57.5833°N, 3.8667°W)
Time: 20:57:26
(UTC+00:00)

Altair - Pass Details

Date: 05 October 2022
Orbit: 1501 x 1682 km, 47.2° (Epoch: 05 December)

Event Time Altitude Azimuth Distance (km) Brightness Sun altitude
Exits shadow 03:45:11 - 187° (S) 4,185 9.5 -21.9°
Reaches altitude 10° 03:46:55 10° 180° (S) 3,803 9.3 -21.7°
Maximum altitude 03:53:33 21° 136° (SE) 3,059 9.2 -20.9°
Drops below altitude 10° 04:00:19 10° 93° (E) 3,906 10.5 -20.1°
Sets 04:04:29 0° 79° (ENE) 4,917 11.6 -19.6°
